Yatton Keynell, United Kingdom

2:37 PM BST on April 20, 2019 (GMT +0100)
Yatton Keynell

Weather History for 03740 - August, 2014

Change the Weather History Date:

Tuesday, August 12, 2014

  Actual Average Record
Temperature  
Mean Temperature 56 °F -  
Max Temperature 63 °F 66 °F - ()
Min Temperature 50 °F 51 °F - ()
Degree Days  
Heating Degree Days 8    
Growing Degree Days 6 (Base 50)    
Moisture  
Dew Point 50 °F    
Average Humidity 77    
Maximum Humidity 94    
Minimum Humidity 55    
Precipitation  
Precipitation 0.12 in 0.08 in - ()
Sea Level Pressure  
Sea Level Pressure 29.75 in    
Wind  
Wind Speed 7 mph ()    
Max Wind Speed 13 mph    
Max Gust Speed -    
T = Trace of Precipitation, MM = Missing Value Source: Averaged Metar Reports

Daily Weather History Graph

Daily Weather History Graph

Search for Another Location

Airport or City:

Astronomy

Aug. 12, 2014 Rise Set
Actual Time 5:48 AM BST 8:36 PM BST
Civil Twilight 5:10 AM BST 9:14 PM BST
Nautical Twilight 4:20 AM BST 10:03 PM BST
Astronomical Twilight 3:19 AM BST 11:03 PM BST
Moon 9:10 PM BST (8/12) 8:08 AM BST (8/12)
Length of Visible Light 16h 04m
Length of Day
14h 48m
Waning Gibbous, 96% of the Moon is Illuminated
Aug 12
Waning Gibbous
Aug 17
Last Quarter
Aug 25
New
Sep 2
First Quarter
Sep 9
Full

Hourly Weather History & Observations

Time (BST) Temp. Dew Point Humidity Pressure Visibility Wind Dir Wind Speed Gust Speed Precip Events Conditions
12:00 AM 54 °F 52 °F 89% 29.79 in - SW 6.9 mph - -   Mostly Cloudy
1:00 AM 53 °F 51 °F 92% 29.79 in - SSW 5.8 mph - -   Scattered Clouds
2:00 AM 53 °F 51 °F 88% 29.79 in - SW 8.1 mph - -   Mostly Cloudy
3:00 AM 52 °F 50 °F 92% 29.79 in - WSW 5.8 mph - -   Scattered Clouds
4:00 AM 51 °F 50 °F 94% 29.79 in - South 4.6 mph - -   Scattered Clouds
5:00 AM 51 °F 49 °F 92% 29.78 in - SW 6.9 mph - -   Mostly Cloudy
6:00 AM 51 °F 49 °F 91% 29.77 in - SSW 5.8 mph - -   Mostly Cloudy
7:00 AM 51 °F 50 °F 93% 29.78 in - SW 6.9 mph - -  
8:00 AM 52 °F 50 °F 89% 29.77 in - SW 9.2 mph - -   Mostly Cloudy
9:00 AM 54 °F 51 °F 88% 29.78 in - SW 6.9 mph - -   Mostly Cloudy
10:00 AM 59 °F 52 °F 70% 29.76 in - SW 9.2 mph - -   Partly Cloudy
11:00 AM 59 °F 49 °F 60% 29.77 in - WSW 12.7 mph - -   Scattered Clouds
12:00 PM 60 °F 48 °F 55% 29.76 in - WSW 12.7 mph - -   Partly Cloudy
1:00 PM 60 °F 49 °F 58% 29.76 in - SW 12.7 mph - -   Scattered Clouds
2:00 PM 60 °F 50 °F 60% 29.75 in - WSW 10.4 mph - -   Partly Cloudy
3:00 PM 60 °F 52 °F 69% 29.74 in - SW 12.7 mph - -   Partly Cloudy
4:00 PM 62 °F 52 °F 62% 29.72 in - SW 9.2 mph - -   Partly Cloudy
5:00 PM 60 °F 53 °F 70% 29.72 in - WSW 10.4 mph - -   Mostly Cloudy
6:00 PM 59 °F 53 °F 75% 29.71 in - WSW 6.9 mph - -   Partly Cloudy
7:00 PM 59 °F 51 °F 66% 29.70 in - WSW 11.5 mph - -   Scattered Clouds
8:00 PM 58 °F 50 °F 66% 29.69 in - SW 6.9 mph - -   Scattered Clouds
9:00 PM 56 °F 51 °F 77% 29.69 in - SSW 5.8 mph - -   Partly Cloudy
10:00 PM 55 °F 49 °F 74% 29.70 in - SW 5.8 mph - -   Scattered Clouds
11:00 PM 54 °F 49 °F 77% 29.70 in - SW 5.8 mph - -